Time,TemperatureF,DewpointF,PressureIn,WindDirection,WindDirectionDegrees,WindSpeedMPH,WindSpeedGustMPH,Humidity,HourlyPrecipIn,Conditions,Clouds,dailyrainin,SolarRadiationWatts/m^2,SoftwareType,DateUTC
2013-02-18 00:01:00,45.0,44.0,-100.00,ENE,59,0.0,2.0,96,0.00,,,0.00,0.000000,,2013-02-18 08:01:00,
2013-02-18 00:11:00,45.0,44.0,-100.00,ENE,59,0.0,2.0,96,0.00,,,0.00,0.000000,,2013-02-18 08:11:00,
2013-02-18 00:42:00,42.0,41.0,-100.00,East,89,0.0,0.0,95,0.00,,,-99.99,0.000000,,2013-02-18 08:42:00,
2013-02-18 00:52:00,42.0,41.0,-100.00,East,89,0.0,0.0,95,0.00,,,-99.99,0.000000,,2013-02-18 08:52:00,
2013-02-18 01:02:00,42.0,41.0,-100.00,East,89,0.0,0.0,95,0.00,,,-99.99,0.000000,,2013-02-18 09:02:00,
2013-02-18 01:11:00,42.0,41.0,-100.00,East,89,0.0,0.0,95,0.00,,,-99.99,0.000000,,2013-02-18 09:11:00,
2013-02-18 01:42:00,43.0,36.0,-100.00,WNW,298,0.0,0.0,76,0.00,,,0.00,0.000000,,2013-02-18 09:42:00,
2013-02-18 01:52:00,43.0,36.0,-100.00,WNW,298,0.0,0.0,76,0.00,,,0.00,0.000000,,2013-02-18 09:52:00,
2013-02-18 02:01:00,43.0,36.0,-100.00,WNW,298,0.0,0.0,76,0.00,,,0.00,0.000000,,2013-02-18 10:01:00,
2013-02-18 02:11:00,43.0,36.0,-100.00,WNW,298,0.0,0.0,76,0.00,,,0.00,0.000000,,2013-02-18 10:11:00,
2013-02-18 02:42:00,42.0,36.0,-100.00,West,265,0.0,0.0,79,0.00,,,0.00,0.000000,,2013-02-18 10:42:00,
2013-02-18 02:52:00,42.0,36.0,-100.00,West,265,0.0,0.0,79,0.00,,,0.00,0.000000,,2013-02-18 10:52:00,
2013-02-18 03:01:00,42.0,36.0,-100.00,West,265,0.0,0.0,79,0.00,,,0.00,0.000000,,2013-02-18 11:01:00,
2013-02-18 03:11:00,42.0,36.0,-100.00,West,265,0.0,0.0,79,0.00,,,0.00,0.000000,,2013-02-18 11:11:00,
2013-02-18 03:43:00,43.0,34.0,-100.00,WSW,256,0.0,0.0,70,0.00,,,0.00,0.000000,,2013-02-18 11:43:00,
2013-02-18 03:53:00,43.0,34.0,-100.00,WSW,256,0.0,0.0,70,0.00,,,0.00,0.000000,,2013-02-18 11:53:00,
2013-02-18 04:02:00,43.0,34.0,-100.00,WSW,256,0.0,0.0,70,0.00,,,0.00,0.000000,,2013-02-18 12:02:00,
2013-02-18 04:11:00,43.0,34.0,-100.00,WSW,256,0.0,0.0,70,0.00,,,0.00,0.000000,,2013-02-18 12:11:00,
2013-02-18 04:42:00,42.0,32.0,-100.00,ENE,71,0.0,0.0,67,0.00,,,0.00,0.000000,,2013-02-18 12:42:00,
2013-02-18 04:53:00,42.0,32.0,-100.00,ENE,71,0.0,0.0,67,0.00,,,0.00,0.000000,,2013-02-18 12:53:00,
2013-02-18 05:02:00,42.0,32.0,-100.00,ENE,71,0.0,0.0,67,0.00,,,0.00,0.000000,,2013-02-18 13:02:00,
2013-02-18 05:11:00,42.0,32.0,-100.00,ENE,71,0.0,0.0,67,0.00,,,0.00,0.000000,,2013-02-18 13:11:00,
2013-02-18 05:42:00,40.0,34.0,-100.00,NNE,30,0.0,0.0,80,0.00,,,0.00,0.000000,,2013-02-18 13:42:00,
2013-02-18 05:53:00,40.0,34.0,-100.00,NNE,30,0.0,0.0,80,0.00,,,0.00,0.000000,,2013-02-18 13:53:00,
2013-02-18 06:02:00,40.0,34.0,-100.00,NNE,30,0.0,0.0,80,0.00,,,0.00,0.000000,,2013-02-18 14:02:00,
2013-02-18 06:11:00,40.0,34.0,-100.00,NNE,30,0.0,0.0,80,0.00,,,0.00,0.000000,,2013-02-18 14:11:00,
2013-02-18 06:42:00,39.0,31.0,-100.00,SSW,200,0.0,2.0,73,0.00,,,0.00,0.000000,,2013-02-18 14:42:00,
2013-02-18 06:53:00,39.0,31.0,-100.00,SSW,200,0.0,2.0,73,0.00,,,0.00,0.000000,,2013-02-18 14:53:00,
2013-02-18 07:01:00,39.0,31.0,-100.00,SSW,200,0.0,2.0,73,0.00,,,0.00,0.000000,,2013-02-18 15:01:00,
2013-02-18 07:11:00,39.0,31.0,-100.00,SSW,200,0.0,2.0,73,0.00,,,0.00,0.000000,,2013-02-18 15:11:00,
2013-02-18 07:42:00,40.0,36.0,-100.00,South,189,0.0,0.0,87,0.00,,,0.00,37.000000,,2013-02-18 15:42:00,
2013-02-18 07:52:00,40.0,36.0,-100.00,South,189,0.0,0.0,87,0.00,,,0.00,37.000000,,2013-02-18 15:52:00,
2013-02-18 08:02:00,40.0,36.0,-100.00,South,189,0.0,0.0,87,0.00,,,0.00,37.000000,,2013-02-18 16:02:00,
2013-02-18 08:11:00,40.0,36.0,-100.00,South,189,0.0,0.0,87,0.00,,,0.00,37.000000,,2013-02-18 16:11:00,
2013-02-18 08:43:00,42.0,39.0,-100.00,WSW,244,0.0,5.0,89,0.00,,,0.00,204.000000,,2013-02-18 16:43:00,
2013-02-18 08:53:00,42.0,39.0,-100.00,WSW,244,0.0,5.0,89,0.00,,,0.00,204.000000,,2013-02-18 16:53:00,
2013-02-18 09:03:00,42.0,39.0,-100.00,WSW,244,0.0,5.0,89,0.00,,,0.00,204.000000,,2013-02-18 17:03:00,
2013-02-18 09:11:00,42.0,39.0,-100.00,WSW,244,0.0,5.0,89,0.00,,,0.00,204.000000,,2013-02-18 17:11:00,
2013-02-18 09:43:00,51.0,44.0,-100.00,South,170,0.0,3.0,76,0.00,,,0.00,420.000000,,2013-02-18 17:43:00,
2013-02-18 09:53:00,51.0,44.0,-100.00,South,170,0.0,3.0,76,0.00,,,0.00,420.000000,,2013-02-18 17:53:00,
2013-02-18 10:02:00,51.0,44.0,-100.00,South,170,0.0,3.0,76,0.00,,,0.00,420.000000,,2013-02-18 18:02:00,
2013-02-18 10:11:00,51.0,44.0,-100.00,South,170,0.0,3.0,76,0.00,,,0.00,420.000000,,2013-02-18 18:11:00,
2013-02-18 10:43:00,57.0,42.0,-100.00,SW,222,1.0,5.0,58,0.00,,,0.00,767.000000,,2013-02-18 18:43:00,
2013-02-18 10:52:00,57.0,42.0,-100.00,SW,222,1.0,5.0,58,0.00,,,0.00,767.000000,,2013-02-18 18:52:00,
2013-02-18 11:02:00,57.0,42.0,-100.00,SW,222,1.0,5.0,58,0.00,,,0.00,767.000000,,2013-02-18 19:02:00,
2013-02-18 11:11:00,57.0,42.0,-100.00,SW,222,1.0,5.0,58,0.00,,,0.00,767.000000,,2013-02-18 19:11:00,
2013-02-18 11:43:00,63.0,42.0,-100.00,South,189,5.0,8.0,47,0.00,,,0.00,910.000000,,2013-02-18 19:43:00,
2013-02-18 11:53:00,63.0,42.0,-100.00,South,189,5.0,8.0,47,0.00,,,0.00,910.000000,,2013-02-18 19:53:00,
2013-02-18 12:01:00,63.0,42.0,-100.00,South,189,5.0,8.0,47,0.00,,,0.00,910.000000,,2013-02-18 20:01:00,
2013-02-18 12:11:00,63.0,42.0,-100.00,South,189,5.0,8.0,47,0.00,,,0.00,910.000000,,2013-02-18 20:11:00,
2013-02-18 12:43:00,61.0,35.0,-100.00,WSW,246,9.0,14.0,37,0.00,,,0.00,976.000000,,2013-02-18 20:43:00,
2013-02-18 12:53:00,61.0,35.0,-100.00,WSW,246,9.0,14.0,37,0.00,,,0.00,976.000000,,2013-02-18 20:53:00,
2013-02-18 13:02:00,61.0,35.0,-100.00,WSW,246,9.0,14.0,37,0.00,,,0.00,976.000000,,2013-02-18 21:02:00,
2013-02-18 13:11:00,61.0,35.0,-100.00,WSW,246,9.0,14.0,37,0.00,,,0.00,976.000000,,2013-02-18 21:11:00,
2013-02-18 13:43:00,64.0,36.0,-100.00,West,265,9.0,18.0,35,0.00,,,0.00,951.000000,,2013-02-18 21:43:00,
2013-02-18 13:52:00,64.0,36.0,-100.00,West,265,9.0,18.0,35,0.00,,,0.00,951.000000,,2013-02-18 21:52:00,
2013-02-18 14:02:00,64.0,36.0,-100.00,West,265,9.0,18.0,35,0.00,,,0.00,951.000000,,2013-02-18 22:02:00,
2013-02-18 14:11:00,64.0,36.0,-100.00,West,265,9.0,18.0,35,0.00,,,0.00,951.000000,,2013-02-18 22:11:00,
2013-02-18 14:43:00,64.0,34.0,-100.00,WSW,246,8.0,17.0,32,0.00,,,0.00,852.000000,,2013-02-18 22:43:00,
2013-02-18 14:53:00,64.0,34.0,-100.00,WSW,246,8.0,17.0,32,0.00,,,0.00,852.000000,,2013-02-18 22:53:00,
2013-02-18 15:02:00,64.0,34.0,-100.00,WSW,246,8.0,17.0,32,0.00,,,0.00,852.000000,,2013-02-18 23:02:00,
2013-02-18 15:11:00,64.0,34.0,-100.00,WSW,246,8.0,17.0,32,0.00,,,0.00,852.000000,,2013-02-18 23:11:00,
2013-02-18 15:43:00,65.0,37.0,-100.00,WSW,240,10.0,16.0,35,0.00,,,0.00,671.000000,,2013-02-18 23:43:00,
2013-02-18 15:53:00,65.0,37.0,-100.00,WSW,240,10.0,16.0,35,0.00,,,0.00,671.000000,,2013-02-18 23:53:00,
2013-02-18 16:02:00,65.0,37.0,-100.00,WSW,240,10.0,16.0,35,0.00,,,0.00,671.000000,,2013-02-19 00:02:00,
2013-02-18 16:11:00,65.0,37.0,-100.00,WSW,240,10.0,16.0,35,0.00,,,0.00,671.000000,,2013-02-19 00:11:00,
2013-02-18 16:44:00,62.0,37.0,-100.00,WSW,253,8.0,14.0,39,0.00,,,0.00,427.000000,,2013-02-19 00:44:00,
2013-02-18 16:54:00,62.0,37.0,-100.00,WSW,253,8.0,14.0,39,0.00,,,0.00,427.000000,,2013-02-19 00:54:00,
2013-02-18 17:02:00,62.0,37.0,-100.00,WSW,253,8.0,14.0,39,0.00,,,0.00,427.000000,,2013-02-19 01:02:00,
2013-02-18 17:12:00,62.0,37.0,-100.00,WSW,253,8.0,14.0,39,0.00,,,0.00,427.000000,,2013-02-19 01:12:00,
2013-02-18 17:45:00,55.0,36.0,-100.00,SW,227,11.0,17.0,49,0.00,,,0.00,155.000000,,2013-02-19 01:45:00,
2013-02-18 17:55:00,55.0,36.0,-100.00,SW,227,11.0,17.0,49,0.00,,,0.00,155.000000,,2013-02-19 01:55:00,
2013-02-18 18:02:00,55.0,36.0,-100.00,SW,227,11.0,17.0,49,0.00,,,0.00,155.000000,,2013-02-19 02:02:00,
2013-02-18 18:12:00,55.0,36.0,-100.00,SW,227,11.0,17.0,49,0.00,,,0.00,155.000000,,2013-02-19 02:12:00,
2013-02-18 18:43:00,50.0,42.0,-100.00,WSW,243,10.0,19.0,75,0.00,,,0.00,6.000000,,2013-02-19 02:43:00,
2013-02-18 18:54:00,50.0,42.0,-100.00,WSW,243,10.0,19.0,75,0.00,,,0.00,6.000000,,2013-02-19 02:54:00,
2013-02-18 19:04:00,50.0,42.0,-100.00,WSW,243,10.0,19.0,75,0.00,,,0.00,6.000000,,2013-02-19 03:04:00,
2013-02-18 19:12:00,50.0,42.0,-100.00,WSW,243,10.0,19.0,75,0.00,,,0.00,6.000000,,2013-02-19 03:12:00,
2013-02-18 19:45:00,45.0,41.0,-100.00,NW,319,0.0,13.0,87,0.00,,,0.00,0.000000,,2013-02-19 03:45:00,
2013-02-18 19:54:00,45.0,41.0,-100.00,NW,319,0.0,13.0,87,0.00,,,0.00,0.000000,,2013-02-19 03:54:00,
2013-02-18 20:02:00,45.0,41.0,-100.00,NW,319,0.0,13.0,87,0.00,,,0.00,0.000000,,2013-02-19 04:02:00,
2013-02-18 20:12:00,45.0,41.0,-100.00,NW,319,0.0,13.0,87,0.00,,,0.00,0.000000,,2013-02-19 04:12:00,
2013-02-18 20:54:00,45.0,43.0,-100.00,WNW,282,8.0,14.0,94,0.00,,,0.00,0.000000,,2013-02-19 04:54:00,
2013-02-18 21:01:00,45.0,43.0,-100.00,WNW,282,8.0,14.0,94,0.00,,,0.00,0.000000,,2013-02-19 05:01:00,
2013-02-18 21:12:00,45.0,43.0,-100.00,WNW,282,8.0,14.0,94,0.00,,,0.00,0.000000,,2013-02-19 05:12:00,
2013-02-18 21:43:00,44.0,44.0,-100.00,WNW,292,0.0,11.0,99,0.00,,,0.00,0.000000,,2013-02-19 05:43:00,
2013-02-18 21:52:00,44.0,44.0,-100.00,WNW,292,0.0,11.0,99,0.00,,,0.00,0.000000,,2013-02-19 05:52:00,
2013-02-18 22:02:00,44.0,44.0,-100.00,WNW,292,0.0,11.0,99,0.00,,,0.00,0.000000,,2013-02-19 06:02:00,
2013-02-18 22:11:00,44.0,44.0,-100.00,WNW,292,0.0,11.0,99,0.00,,,0.00,0.000000,,2013-02-19 06:11:00,
2013-02-18 22:42:00,44.0,44.0,-100.00,WSW,243,1.0,6.0,99,0.00,,,0.00,0.000000,,2013-02-19 06:42:00,
2013-02-18 22:52:00,44.0,44.0,-100.00,WSW,243,1.0,6.0,99,0.00,,,0.00,0.000000,,2013-02-19 06:52:00,
2013-02-18 23:01:00,44.0,44.0,-100.00,WSW,243,1.0,6.0,99,0.00,,,0.00,0.000000,,2013-02-19 07:01:00,
2013-02-18 23:11:00,44.0,44.0,-100.00,WSW,243,1.0,6.0,99,0.00,,,0.00,0.000000,,2013-02-19 07:11:00,
2013-02-18 23:42:00,44.0,44.0,-100.00,SW,235,8.0,12.0,99,0.00,,,0.00,0.000000,,2013-02-19 07:42:00,
2013-02-18 23:52:00,44.0,44.0,-100.00,SW,235,8.0,12.0,99,0.00,,,0.00,0.000000,,2013-02-19 07:52:00,